Hourly Data Report for October 06, 2017

All times are specified in Local Standard Time (LST). Add 1 hour to adjust for Daylight Saving Time where and when it is observed.

IQALUIT CLIMATE
NUNAVUT

63°44'50.000" N
68°32'40.000" W
33.50 m
2402592
71321
XFB

Download Data

Hourly Data (October 2017)
Hourly Data Report for October 6, 2017
Temp Definition
°C
Dew Point Temp Definition
°C
Rel Hum Definition
%
Wind Dir Definition
10's deg

Wind Spd Definition
km/h
Visibility Definition
km
Stn Press Definition
kPa
Hmdx Definition


Wind Chill Definition


Weather Definition


TIME
00:00 0.0 -2.2 85 13 24   99.21   -6 LegendNANA
01:00 -0.4 -2.2 87 11 22   99.17   -6 LegendNANA
02:00 -0.3 -2.3 86 12 16   99.12   -5 LegendNANA
03:00 -0.2 -2.6 84 11 16   99.07   -5 LegendNANA
04:00 0.0 -3.6 77 11 16   99.04   -5 LegendNANA
05:00 0.2 -4.2 72 12 18   99.03     LegendNANA
06:00 -0.8 -2.9 86 11 18   99.00   -6 LegendNANA
07:00 -1.1 -2.3 92 12 14   98.96   -6 LegendNANA
08:00 -0.6 -2.6 86 11 16   98.92   -5 LegendNANA
09:00 -0.5 -2.8 85 10 19   98.88   -6 LegendNANA
10:00 -0.2 -3.2 80 9 23   98.81   -6 LegendNANA
11:00 0.0 -3.2 79 9 24   98.76   -6 LegendNANA
12:00 0.2 -3.1 79 9 23   98.73     LegendNANA
13:00 0.2 -2.2 84 10 18   98.72     LegendNANA
14:00 0.0 -2.5 84 8 17   98.70   -5 LegendNANA
15:00 -0.3 -2.5 85 8 17   98.70   -5 LegendNANA
16:00 -0.5 -2.8 85 7 17   98.67   -5 LegendNANA
17:00 -0.8 -3.6 82 7 13   98.65   -5 LegendNANA
18:00 -1.3 -3.8 83 5 11   98.64   -5 LegendNANA
19:00 -2.4 -4.7 85 36 7   98.63   -5 LegendNANA
20:00 -2.0 -4.2 85 36 13   98.62   -6 LegendNANA
21:00 -2.4 -4.5 86 33 12   98.62   -7 LegendNANA
22:00 -2.3 -3.8 89 33 13   98.60   -7 LegendNANA
23:00 -1.9 -4.0 86 32 11   98.59   -6 LegendNANA

Notes on Data Quality.

Legend

  • E = Estimated
  • M = Missing
  • NA = Not Available
  • ‡ = Partner data that is not subject to review by the National Climate Archives
Date modified: